Weather History for Wichita Falls, TX

Change the Weather History Date:

Saturday, March 2, 2013

  Actual Average (KSPS) Record (KSPS)
Temperature  
Mean Temperature 44 °F 50 °F  
Max Temperature 57 °F 62 °F 92 °F (1974)
Min Temperature 30 °F 38 °F 10 °F (1980)
Degree Days  
Heating Degree Days 22 15  
Month to date heating degree days 31  
Since 1 July heating degree days 2477  
Cooling Degree Days 0 0  
Month to date cooling degree days 0  
Year to date cooling degree days 3  
Moisture  
Dew Point 29 °F    
Average Humidity 63    
Maximum Humidity 87    
Minimum Humidity 33    
Precipitation  
Precipitation 0.00 in 0.07 in 1.01 in (1952)
Month to date precipitation 0.15  
Year to date precipitation 3.04  
Snow  
Snow 0.00 in 0.00 in - ()
Month to date snowfall 0.0  
Since 1 July snowfall 3.4  
Snow Depth -    
Sea Level Pressure  
Sea Level Pressure 30.33 in    
Wind  
Wind Speed 6 mph (North)    
Max Wind Speed 10 mph    
Max Gust Speed -    
Visibility 10 miles    
Events      
T = Trace of Precipitation, MM = Missing Value Source: NWS Daily Summary

Daily Weather History Graph

Daily Weather History Graph

Search for Another Location

Airport:

Trip Planner

Search our weather history database for the weather conditions in past years. The results will help you decide how hot, cold, wet, or windy it might be!

Date:

Astronomy

Mar. 02, 2013 Rise Set
Actual Time 7:00 AM CST 6:31 PM CST
Civil Twilight 6:35 AM CST 6:56 PM CST
Nautical Twilight 6:07 AM CST 7:25 PM CST
Astronomical Twilight 5:38 AM CST 7:54 PM CST
Moon 11:54 PM CST (3/2) 9:46 AM CST (3/2)
Length of Visible Light 12h 20m
Length of Day
11h 30m
Waning Gibbous, 74% of the Moon is Illuminated
Mar 2
Waning Gibbous
Mar 4
Last Quarter
Mar 11
New
Mar 19
First Quarter
Mar 27
Full

Hourly Weather History & Observations

Time (CST) Temp. Windchill Dew Point Humidity Pressure Visibility Wind Dir Wind Speed Gust Speed Precip Events Conditions
12:35 AM 33.8 °F 26.4 °F 28.4 °F 81% 30.39 in 10.0 mi North 9.2 mph - N/A   Clear
12:55 AM 33.8 °F 27.0 °F 28.4 °F 81% 30.39 in 10.0 mi North 8.1 mph - N/A   Clear
1:15 AM 32.0 °F 24.8 °F 28.4 °F 87% 30.39 in 10.0 mi North 8.1 mph - N/A   Clear
1:35 AM 33.8 °F 28.6 °F 28.4 °F 81% 30.39 in 10.0 mi NNW 5.8 mph - N/A   Clear
1:55 AM 32.0 °F 27.5 °F 28.4 °F 87% 30.40 in 10.0 mi North 4.6 mph - N/A   Clear
2:15 AM 32.0 °F 27.5 °F 28.4 °F 87% 30.40 in 10.0 mi NNW 4.6 mph - N/A   Clear
2:35 AM 32.0 °F 27.5 °F 28.4 °F 87% 30.40 in 10.0 mi NNW 4.6 mph - N/A   Clear
2:55 AM 32.0 °F 26.4 °F 28.4 °F 87% 30.39 in 10.0 mi North 5.8 mph - N/A   Clear
3:15 AM 32.0 °F 25.6 °F 28.4 °F 87% 30.39 in 10.0 mi NNW 6.9 mph - N/A   Clear
3:35 AM 32.0 °F 25.6 °F 28.4 °F 87% 30.39 in 10.0 mi NNW 6.9 mph - N/A   Clear
3:55 AM 32.0 °F 25.6 °F 28.4 °F 87% 30.39 in 10.0 mi NNW 6.9 mph - N/A   Clear
4:15 AM 32.0 °F 25.6 °F 28.4 °F 87% 30.39 in 10.0 mi North 6.9 mph - N/A   Clear
4:35 AM 32.0 °F 24.8 °F 28.4 °F 87% 30.39 in 10.0 mi NNW 8.1 mph - N/A   Clear
4:55 AM 32.0 °F 25.6 °F 28.4 °F 87% 30.39 in 10.0 mi NNW 6.9 mph - N/A   Clear
5:15 AM 32.0 °F 23.6 °F 26.6 °F 80% 30.39 in 10.0 mi North 10.4 mph - N/A   Clear
5:35 AM 32.0 °F 25.6 °F 26.6 °F 80% 30.40 in 10.0 mi NNW 6.9 mph - N/A   Clear
5:55 AM 32.0 °F 26.4 °F 26.6 °F 80% 30.40 in 10.0 mi NNW 5.8 mph - N/A   Clear
6:35 AM 30.2 °F - 26.6 °F 86% 30.41 in 10.0 mi Calm Calm - N/A   Clear
6:55 AM 30.2 °F 26.7 °F 26.6 °F 86% 30.42 in 10.0 mi North 3.5 mph - N/A   Clear
7:15 AM 30.2 °F 25.4 °F 24.8 °F 80% 30.42 in 10.0 mi NNE 4.6 mph - N/A   Clear
7:35 AM 30.2 °F 26.7 °F 26.6 °F 86% 30.43 in 10.0 mi North 3.5 mph - N/A   Clear
7:55 AM 32.0 °F 28.7 °F 26.6 °F 80% 30.44 in 10.0 mi North 3.5 mph - N/A   Clear
8:15 AM 32.0 °F 27.5 °F 26.6 °F 80% 30.45 in 10.0 mi North 4.6 mph - N/A   Clear
8:35 AM 32.0 °F - 26.6 °F 80% 30.45 in 10.0 mi Calm Calm - N/A   Clear
8:55 AM 33.8 °F 30.8 °F 26.6 °F 75% 30.45 in 10.0 mi North 3.5 mph - N/A   Clear
9:15 AM 33.8 °F 30.8 °F 26.6 °F 75% 30.45 in 10.0 mi North 3.5 mph - N/A   Clear
9:35 AM 35.6 °F 31.7 °F 26.6 °F 70% 30.45 in 10.0 mi North 4.6 mph - N/A   Clear
9:55 AM 37.4 °F 33.8 °F 26.6 °F 65% 30.45 in 10.0 mi NNW 4.6 mph - N/A   Clear
10:15 AM 37.4 °F 32.8 °F 28.4 °F 70% 30.45 in 10.0 mi North 5.8 mph - N/A   Clear
10:35 AM 41.0 °F - 28.4 °F 61% 30.44 in 10.0 mi Calm Calm - N/A   Clear
10:55 AM 41.0 °F - 28.4 °F 61% 30.44 in 10.0 mi Calm Calm - N/A   Clear
11:15 AM 42.8 °F 40.1 °F 28.4 °F 57% 30.44 in 10.0 mi NNW 4.6 mph - N/A   Clear
11:35 AM 42.8 °F 41.1 °F 28.4 °F 57% 30.42 in 10.0 mi SW 3.5 mph - N/A   Clear
11:55 AM 44.6 °F - 28.4 °F 53% 30.42 in 10.0 mi Calm Calm - N/A   Clear
12:35 PM 46.4 °F 45.2 °F 28.4 °F 50% 30.38 in 10.0 mi SW 3.5 mph - N/A   Clear
12:55 PM 48.2 °F - 28.4 °F 46% 30.36 in 10.0 mi West 3.5 mph - N/A   Clear
1:15 PM 50.0 °F - 28.4 °F 43% 30.35 in 10.0 mi West 4.6 mph - N/A   Clear
1:35 PM 51.8 °F - 28.4 °F 41% 30.33 in 10.0 mi WNW 3.5 mph - N/A   Clear
1:55 PM 51.8 °F - 26.6 °F 38% 30.32 in 10.0 mi WNW 6.9 mph - N/A   Clear
2:15 PM 51.8 °F - 28.4 °F 41% 30.31 in 10.0 mi WNW 8.1 mph - N/A   Clear
2:35 PM 53.6 °F - 28.4 °F 38% 30.29 in 10.0 mi WSW 6.9 mph - N/A   Clear
2:55 PM 53.6 °F - 28.4 °F 38% 30.29 in 10.0 mi SW 9.2 mph - N/A   Clear
3:15 PM 55.4 °F - 28.4 °F 36% 30.27 in 10.0 mi WSW 4.6 mph - N/A   Clear
3:35 PM 55.4 °F - 28.4 °F 36% 30.27 in 10.0 mi WSW 5.8 mph - N/A   Clear
3:55 PM 55.4 °F - 28.4 °F 36% 30.26 in 10.0 mi WSW 5.8 mph - N/A   Clear
4:15 PM 57.2 °F - 28.4 °F 33% 30.25 in 10.0 mi Calm Calm - N/A   Clear
4:35 PM 57.2 °F - 28.4 °F 33% 30.25 in 10.0 mi WSW 4.6 mph - N/A   Clear
4:55 PM 57.2 °F - 28.4 °F 33% 30.24 in 10.0 mi Calm Calm - N/A   Clear
5:15 PM 57.2 °F - 30.2 °F 36% 30.24 in 10.0 mi Calm Calm - N/A   Clear
5:35 PM 57.2 °F - 30.2 °F 36% 30.24 in 10.0 mi Calm Calm - N/A   Clear
5:55 PM 57.2 °F - 32.0 °F 38% 30.24 in 10.0 mi Calm Calm - N/A   Clear
6:15 PM 55.4 °F - 32.0 °F 41% 30.24 in 10.0 mi ESE 4.6 mph - N/A   Clear
6:35 PM 53.6 °F - 32.0 °F 44% 30.23 in 10.0 mi ESE 4.6 mph - N/A   Clear
6:55 PM 51.8 °F - 32.0 °F 47% 30.23 in 10.0 mi ESE 6.9 mph - N/A   Clear
7:15 PM 50.0 °F - 32.0 °F 50% 30.23 in 10.0 mi ESE 8.1 mph - N/A   Clear
7:35 PM 48.2 °F - 32.0 °F 54% 30.22 in 10.0 mi ESE 6.9 mph - N/A   Clear
7:55 PM 48.2 °F - 32.0 °F 54% 30.22 in 10.0 mi ESE 9.2 mph - N/A   Clear
8:15 PM 48.2 °F - 32.0 °F 54% 30.22 in 10.0 mi ESE 8.1 mph - N/A   Clear
8:35 PM 46.4 °F 41.9 °F 32.0 °F 57% 30.22 in 10.0 mi ESE 9.2 mph - N/A   Clear
8:55 PM 44.6 °F 40.2 °F 32.0 °F 61% 30.22 in 10.0 mi ESE 8.1 mph - N/A   Clear
9:15 PM 44.6 °F 40.2 °F 32.0 °F 61% 30.22 in 10.0 mi ESE 8.1 mph - N/A   Clear
9:35 PM 44.6 °F 40.2 °F 32.0 °F 61% 30.23 in 10.0 mi ESE 8.1 mph - N/A   Clear
9:55 PM 42.8 °F 38.0 °F 32.0 °F 66% 30.22 in 10.0 mi ESE 8.1 mph - N/A   Clear
10:15 PM 42.8 °F 38.6 °F 32.0 °F 66% 30.23 in 10.0 mi SE 6.9 mph - N/A   Clear
10:35 PM 41.0 °F 36.4 °F 32.0 °F 70% 30.22 in 10.0 mi SE 6.9 mph - N/A   Clear
10:55 PM 41.0 °F 35.2 °F 32.0 °F 70% 30.22 in 10.0 mi SE 9.2 mph - N/A   Clear
11:15 PM 41.0 °F 35.8 °F 32.0 °F 70% 30.22 in 10.0 mi SE 8.1 mph - N/A   Clear
11:35 PM 41.0 °F 35.2 °F 30.2 °F 65% 30.21 in 10.0 mi SE 9.2 mph - N/A   Clear
11:55 PM 41.0 °F 35.8 °F 30.2 °F 65% 30.20 in 10.0 mi SSE 8.1 mph - N/A   Clear